M I D A S
Marine Information and Data Acquisition System
Tripno 314 of the Zeeleeuw from 2002-02-28 07:05:00 to 2002-02-28 17:03:23
Back to CruiseResearch ActivitiesStationsMapUnderway DataData graphs

EquipmentUnitsComment
TimeDGPSUTC
LatitudeDGPSDM.mWGS84
LongitudeDGPSDM.mWGS84
HeadingGyrodeg 
SOGDGPSknotsSpeed over ground
COGDGPSdegCourse over ground
DepthEcho soundermeters200 kHz
Missing or incorrect values are displayed as -999
Navigation data collected by the RV Zeeleeuw from 2002-02-28 07:05:00 to 2002-02-28 17:03:23
                                                                                    Next 1000 lines
Time Latitude Longitude Heading SOG COG Depth
2002-02-28 07:05:06 51°13.686 2°55.906 111 0.1 178.5 5.7
2002-02-28 07:05:12 51°13.686 2°55.906 110.7 0.1 181.4 5.8
2002-02-28 07:05:17 51°13.686 2°55.905 110.2 0.1 180.3 5.7
2002-02-28 07:05:22 51°13.686 2°55.905 109.5 0.1 179.9 5.8
2002-02-28 07:05:27 51°13.686 2°55.905 109 0.1 176.3 -999
2002-02-28 07:05:32 51°13.686 2°55.905 108.5 0.1 171 5.7
2002-02-28 07:05:37 51°13.686 2°55.905 108 0.1 163.5 5.9
2002-02-28 07:05:42 51°13.687 2°55.905 107.5   158.7 5.7
2002-02-28 07:05:47 51°13.687 2°55.905 107.7 0.1 356.9 -999
2002-02-28 07:05:52 51°13.687 2°55.904 108 0.3 306 5.8
2002-02-28 07:05:57 51°13.688 2°55.902 108.2 0.6 299.5 5.7
2002-02-28 07:06:02 51°13.689 2°55.899 107.5 1.1 295.5 5.2
2002-02-28 07:06:07 51°13.69 2°55.894 106.3 1.8 292.2 5
2002-02-28 07:06:13 51°13.691 2°55.888 104.8 2.4 288.8 -999
2002-02-28 07:06:18 51°13.692 2°55.881 103.7 3 286.3 -999
2002-02-28 07:06:23 51°13.694 2°55.873 103.2 3.3 285.1 -999
2002-02-28 07:06:28 51°13.695 2°55.865 103 3.6 284.7 -999
2002-02-28 07:06:33 51°13.697 2°55.856 103 4 285.3 -999
2002-02-28 07:06:38 51°13.698 2°55.848 102.7 4 286.4 -999
2002-02-28 07:06:43 51°13.7 2°55.839 102 4 287 -999
2002-02-28 07:06:48 51°13.701 2°55.831 100.8 3.9 287.1 -999
2002-02-28 07:06:53 51°13.703 2°55.823 99.7 3.8 287.1 6.7
2002-02-28 07:06:58 51°13.704 2°55.815 98.5 3.8 286.8 -999
2002-02-28 07:07:03 51°13.706 2°55.807 97 3.8 285.6 -999
2002-02-28 07:07:07 51°13.707 2°55.801 95.7 3.7 284.7 8.6
2002-02-28 07:07:12 51°13.708 2°55.793 94.3 3.7 283.9 9
2002-02-28 07:07:17 51°13.709 2°55.785 92.7 3.7 283.4 9.9
2002-02-28 07:07:21 51°13.71 2°55.779 90.7 3.7 283.1 10.8
2002-02-28 07:07:26 51°13.711 2°55.771 88.8 3.5 282 11.4
2002-02-28 07:07:32 51°13.712 2°55.763 87.2 3.4 281.7 11.3
2002-02-28 07:07:37 51°13.713 2°55.756 85.2 3.2 281 11.2
2002-02-28 07:07:42 51°13.714 2°55.749 83.3 3.1 280.1 11.2
2002-02-28 07:07:47 51°13.714 2°55.743 81.5 3 278.9 11.1
2002-02-28 07:07:51 51°13.715 2°55.738 79.7 2.9 277.9 10.9
2002-02-28 07:07:57 51°13.715 2°55.732 77.7 2.8 277.8 9.4
2002-02-28 07:08:02 51°13.715 2°55.726 75.8 2.7 276.9 9.3
2002-02-28 07:08:07 51°13.716 2°55.721 73.8 2.6 276.2 9.7
2002-02-28 07:08:12 51°13.716 2°55.715 71.8 2.5 274.3 -999
2002-02-28 07:08:18 51°13.716 2°55.71 69.3 2.4 273.7 -999
2002-02-28 07:08:22 51°13.716 2°55.707 66.5 2 277.2 -999
2002-02-28 07:08:28 51°13.718 2°55.705 60.8 1.5 286.1 10.4
2002-02-28 07:08:32 51°13.719 2°55.704 53.8 1.1 325.3 10.3
2002-02-28 07:08:37 51°13.722 2°55.704 45 1.3 351.9 9.5
2002-02-28 07:08:42 51°13.725 2°55.705 34.7 1.8 2 8.4
2002-02-28 07:08:47 51°13.729 2°55.705 23.5 2.5 2.6 -999
2002-02-28 07:08:52 51°13.734 2°55.704 13.2 3.3 357.1 -999
2002-02-28 07:08:57 51°13.74 2°55.702 3.3 3.7 352.6 8.5
2002-02-28 07:09:02 51°13.747 2°55.698 355.2 4.6 345.2 8.6
2002-02-28 07:09:07 51°13.755 2°55.693 347.5 5.3 341.2 8
2002-02-28 07:09:11 51°13.762 2°55.688 342 5.9 337.4 8
2002-02-28 07:09:17 51°13.773 2°55.678 339.8 6.9 333.8 8.4
2002-02-28 07:09:22 51°13.783 2°55.67 339.7 7.5 332.5 8.3
2002-02-28 07:09:27 51°13.794 2°55.661 339.8 8.2 333.2 8.6
2002-02-28 07:09:32 51°13.805 2°55.652 339 8.7 332.9 8.6
2002-02-28 07:09:37 51°13.817 2°55.643 340.2 9.2 333.7 8.5
2002-02-28 07:09:42 51°13.83 2°55.633 339.8 9.7 334.4 8.5
2002-02-28 07:09:47 51°13.842 2°55.624 339.2 9.9 334.6 8.4
2002-02-28 07:09:52 51°13.855 2°55.614 338.7 10.1 334.4 8.4
2002-02-28 07:09:57 51°13.869 2°55.604 339.3 10.3 334.3 8.1
2002-02-28 07:10:02 51°13.882 2°55.594 338.3 10.6 334.7 8.5
2002-02-28 07:10:07 51°13.896 2°55.583 338 10.8 334 8.5
2002-02-28 07:10:12 51°13.909 2°55.572 338.2 10.9 333.8 8.6
2002-02-28 07:10:17 51°13.923 2°55.561 337.3 11 333.4 6.5
2002-02-28 07:10:22 51°13.937 2°55.551 338 11 333.5 -999
2002-02-28 07:10:28 51°13.953 2°55.538 339 11 334.1 -999
2002-02-28 07:10:33 51°13.967 2°55.528 339.8 10.9 335.4 -999
2002-02-28 07:10:37 51°13.978 2°55.521 340.5 10.7 336 8.5
2002-02-28 07:10:42 51°13.991 2°55.513 341.3 10.4 337.5 8.5
2002-02-28 07:10:47 51°14.003 2°55.504 341.5 10.1 337.7 8.6
2002-02-28 07:10:52 51°14.015 2°55.496 340.7 9.6 336.9 8.6
2002-02-28 07:10:57 51°14.027 2°55.488 340.2 9.3 336.3 8.7
2002-02-28 07:11:01 51°14.036 2°55.481 339.8 9.1 336.1 8.7
2002-02-28 07:11:07 51°14.049 2°55.472 339.8 8.7 335.9 8.8
2002-02-28 07:11:11 51°14.057 2°55.467 340.2 8.5 336.3 8.8
2002-02-28 07:11:17 51°14.069 2°55.458 339.2 8.2 336.1 8.8
2002-02-28 07:11:22 51°14.079 2°55.45 338.3 8 335.6 8.8
2002-02-28 07:11:27 51°14.089 2°55.443 337.2 7.8 334.3 8.8
2002-02-28 07:11:32 51°14.099 2°55.435 337.7 7.8 334 8.8
2002-02-28 07:11:37 51°14.108 2°55.427 337.8 7.8 333.5 8.7
2002-02-28 07:11:42 51°14.118 2°55.42 337.5 7.8 333.4 8.8
2002-02-28 07:11:47 51°14.128 2°55.412 336.8 7.9 332.9 8.8
2002-02-28 07:11:52 51°14.138 2°55.403 336.5 8 332.4 8.8
2002-02-28 07:11:57 51°14.148 2°55.395 336 8.1 331.9 8.9
2002-02-28 07:12:02 51°14.158 2°55.386 335.2 8.2 331.2 8.9
2002-02-28 07:12:06 51°14.166 2°55.378 334 8.4 330.2 8.9
2002-02-28 07:12:12 51°14.178 2°55.366 333.2 8.4 329.5 8.9
2002-02-28 07:12:17 51°14.189 2°55.356 332.8 8.5 328.7 8.9
2002-02-28 07:12:22 51°14.199 2°55.346 332 8.6 327.8 8.9
2002-02-28 07:12:27 51°14.208 2°55.335 330.2 8.6 326.5 8.9
2002-02-28 07:12:32 51°14.218 2°55.323 328.2 8.7 324.9 8.9
2002-02-28 07:12:37 51°14.227 2°55.311 326.3 8.7 322.5 8.9
2002-02-28 07:12:42 51°14.237 2°55.299 325 8.7 321.2 8.9
2002-02-28 07:12:47 51°14.246 2°55.286 323.8 8.8 319.7 8.9
2002-02-28 07:12:52 51°14.255 2°55.273 322.8 8.8 318.8 8.9
2002-02-28 07:12:57 51°14.264 2°55.26 321.3 8.8 317.5 8.9
2002-02-28 07:13:02 51°14.272 2°55.246 319.7 8.8 316.5 8.9
2002-02-28 07:13:07 51°14.281 2°55.231 318.5 8.9 314.8 8.9
2002-02-28 07:13:11 51°14.288 2°55.22 317.7 8.9 314.1 9
2002-02-28 07:13:17 51°14.298 2°55.203 316.5 8.9 312.9 9
2002-02-28 07:13:22 51°14.306 2°55.188 315 8.9 311.4 8.8
2002-02-28 07:13:27 51°14.314 2°55.172 314.3 8.9 310.4 8.7
2002-02-28 07:13:32 51°14.321 2°55.157 314 8.9 309.6 8.6
2002-02-28 07:13:37 51°14.329 2°55.142 314.3 9 309.2 8.6
2002-02-28 07:13:42 51°14.337 2°55.127 315.2 9 309.6 8.4
2002-02-28 07:13:47 51°14.345 2°55.111 315.7 9 310.1 8.3
2002-02-28 07:13:51 51°14.352 2°55.099 315.7 9 310.2 8.4
2002-02-28 07:13:57 51°14.362 2°55.081 315.5 9.1 310.8 8.5
2002-02-28 07:14:02 51°14.371 2°55.065 316.2 9.2 310.8 8.7
2002-02-28 07:14:07 51°14.38 2°55.05 316.5 9.5 311.1 -999
2002-02-28 07:14:12 51°14.389 2°55.033 316.3 9.8 311.5 -999
2002-02-28 07:14:17 51°14.398 2°55.016 315 10 310.6 8.4
2002-02-28 07:14:22 51°14.407 2°54.998 314 10.2 309.3 8.3
2002-02-28 07:14:27 51°14.416 2°54.979 313.2 10.4 308.4 8.4
2002-02-28 07:14:32 51°14.425 2°54.96 312.7 10.5 307.7 8.4
2002-02-28 07:14:37 51°14.434 2°54.941 312.3 10.8 307 8.4
2002-02-28 07:14:42 51°14.443 2°54.922 312.3 10.9 306.8 8.3
2002-02-28 07:14:47 51°14.452 2°54.902 312 11 306.1 8.4
2002-02-28 07:14:52 51°14.461 2°54.882 311.3 11.1 305.7 8
2002-02-28 07:14:57 51°14.47 2°54.861 310.5 11.2 304.9 8.3
2002-02-28 07:15:01 51°14.477 2°54.845 310.7 11.3 304.6 8.1
2002-02-28 07:15:06 51°14.486 2°54.824 310.7 11.3 304.2 8.3
2002-02-28 07:15:11 51°14.495 2°54.803 310.7 11.4 303.8 8.4
2002-02-28 07:15:17 51°14.505 2°54.777 310.2 11.5 303.7 8.4
2002-02-28 07:15:21 51°14.512 2°54.76 310 11.5 303.2 8.4
2002-02-28 07:15:27 51°14.523 2°54.734 309.8 11.6 303 8.4
2002-02-28 07:15:32 51°14.532 2°54.712 309.2 11.7 302.8 8.5
2002-02-28 07:15:37 51°14.541 2°54.69 308.5 11.8 302.3 8.4
2002-02-28 07:15:41 51°14.547 2°54.672 308.3 11.9 302 8.5
2002-02-28 07:15:47 51°14.558 2°54.644 307.8 12 301.4 8.4
2002-02-28 07:15:52 51°14.567 2°54.621 307 12.1 301 8.4
2002-02-28 07:15:57 51°14.575 2°54.597 306.2 12.3 300.1 8.5
2002-02-28 07:16:02 51°14.583 2°54.573 305.2 12.4 299.3 8.5
2002-02-28 07:16:07 51°14.592 2°54.548 304.2 12.6 298.5 8.5
2002-02-28 07:16:11 51°14.598 2°54.528 303.8 12.7 298 8.5
2002-02-28 07:16:17 51°14.609 2°54.498 303.7 12.9 298 8.5
2002-02-28 07:16:22 51°14.617 2°54.472 305 13 298.3 8.5
2002-02-28 07:16:27 51°14.627 2°54.447 307 13.1 299.7 8.5
2002-02-28 07:16:32 51°14.637 2°54.423 310.2 13.2 301.4 8.6
2002-02-28 07:16:37 51°14.649 2°54.399 312.2 13.3 304.9 8.6
2002-02-28 07:16:42 51°14.66 2°54.376 314.5 13.4 306.2 8.7
2002-02-28 07:16:47 51°14.672 2°54.353 316 13.4 309 8.7
2002-02-28 07:16:52 51°14.684 2°54.331 317.3 13.5 309.8 8.7
2002-02-28 07:16:57 51°14.697 2°54.309 320.2 13.5 312.6 8.7
2002-02-28 07:17:02 51°14.711 2°54.288 321.3 13.5 312.9 8.6
2002-02-28 07:17:07 51°14.724 2°54.268 323.3 13.5 316.3 8.5
2002-02-28 07:17:12 51°14.738 2°54.248 325.2 13.5 317.4 8.4
2002-02-28 07:17:17 51°14.753 2°54.229 326.3 13.4 319.4 8.4
2002-02-28 07:17:22 51°14.767 2°54.21 326.7 13.4 319.7 8.4
2002-02-28 07:17:27 51°14.782 2°54.192 328.8 13.4 321.6 8.3
2002-02-28 07:17:32 51°14.796 2°54.174 329.2 13.4 321.5 8.2
2002-02-28 07:17:37 51°14.812 2°54.157 331.7 13.4 324.2 7.9
2002-02-28 07:17:42 51°14.827 2°54.141 332.2 13.4 324.4 8
2002-02-28 07:17:47 51°14.843 2°54.126 334.3 13.3 327.3 7.7
2002-02-28 07:17:52 51°14.858 2°54.109 334 13.3 326.7 7.6
2002-02-28 07:17:57 51°14.874 2°54.095 337.2 13.2 329.3 7.6
2002-02-28 07:18:02 51°14.89 2°54.08 337 13.1 329.2 7.6
2002-02-28 07:18:07 51°14.906 2°54.067 339.2 13 331.3 7.6
2002-02-28 07:18:12 51°14.922 2°54.053 338.3 13 331.5 7.6
2002-02-28 07:18:17 51°14.938 2°54.042 341.5 12.9 333.6 7.3
2002-02-28 07:18:22 51°14.954 2°54.029 341.3 13 333.7 7.5
2002-02-28 07:18:27 51°14.971 2°54.018 342.5 13 335.6 7.5
2002-02-28 07:18:31 51°14.984 2°54.008 341.5 13 335.3 7.6
2002-02-28 07:18:37 51°15.003 2°53.993 342 13 335.7 7.5
2002-02-28 07:18:42 51°15.019 2°53.98 340.5 13.1 334.6 7.6
2002-02-28 07:18:47 51°15.035 2°53.966 339 13.1 332.9 7.6
2002-02-28 07:18:52 51°15.051 2°53.953 337 13.1 331.8 7.6
2002-02-28 07:18:57 51°15.067 2°53.938 335.8 13 330.1 7.6
2002-02-28 07:19:02 51°15.082 2°53.923 335 13 328.9 7.6
2002-02-28 07:19:07 51°15.097 2°53.907 334 13.1 328.4 7.6
2002-02-28 07:19:11 51°15.11 2°53.895 333.7 13.1 327.6 7.7
2002-02-28 07:19:17 51°15.129 2°53.877 333.8 13.2 328.3 7.7
2002-02-28 07:19:21 51°15.141 2°53.863 333.2 13.2 327.5 7.8
2002-02-28 07:19:27 51°15.159 2°53.847 334.8 13.2 329.1 7.8
2002-02-28 07:19:32 51°15.174 2°53.831 334.3 13.2 328.2 7.9
2002-02-28 07:19:37 51°15.191 2°53.817 336.3 13.2 329.8 7.9
2002-02-28 07:19:42 51°15.206 2°53.801 335 13.2 328.8 8
2002-02-28 07:19:47 51°15.222 2°53.787 337 13.2 330.4 8
2002-02-28 07:19:51 51°15.235 2°53.775 335.8 13.2 329.7 7.9
2002-02-28 07:19:57 51°15.254 2°53.758 336.3 13.3 330.8 8
2002-02-28 07:20:02 51°15.27 2°53.743 337.2 13.3 330 8
2002-02-28 07:20:07 51°15.287 2°53.73 338.7 13.3 332.3 8.1
2002-02-28 07:20:12 51°15.303 2°53.717 339.2 13.4 332 8.2
2002-02-28 07:20:17 51°15.32 2°53.705 343.3 13.3 335.3 8.2
2002-02-28 07:20:22 51°15.337 2°53.694 342.3 13.3 336.4 8.2
2002-02-28 07:20:27 51°15.355 2°53.682 343.2 13.4 337 8.3
2002-02-28 07:20:32 51°15.372 2°53.67 342.7 13.4 336.5 8.4
2002-02-28 07:20:37 51°15.389 2°53.658 342.3 13.5 336.2 8.5
2002-02-28 07:20:42 51°15.406 2°53.644 340.8 13.5 335.4 8.6
2002-02-28 07:20:47 51°15.423 2°53.632 341.3 13.5 334.2 8.7
2002-02-28 07:20:52 51°15.44 2°53.618 339.7 13.5 334 8.7
2002-02-28 07:20:57 51°15.456 2°53.606 341.2 13.5 333.8 8.8
2002-02-28 07:21:02 51°15.473 2°53.592 340 13.5 334.1 8.9
2002-02-28 07:21:07 51°15.491 2°53.58 342.3 13.5 334.9 8.9
2002-02-28 07:21:12 51°15.508 2°53.567 340.7 13.6 335.6 8.9
2002-02-28 07:21:17 51°15.525 2°53.556 343.7 13.6 336.1 9
2002-02-28 07:21:22 51°15.542 2°53.542 341.7 13.7 336 9.1
2002-02-28 07:21:27 51°15.56 2°53.531 343.7 13.7 336.3 9.2
2002-02-28 07:21:32 51°15.577 2°53.517 340.8 13.7 336.3 9.3
2002-02-28 07:21:37 51°15.594 2°53.506 342.2 13.7 335.5 9.4
2002-02-28 07:21:42 51°15.611 2°53.493 341.2 13.7 335.5 9.5
2002-02-28 07:21:47 51°15.629 2°53.481 343.2 13.7 335.7 9.6
2002-02-28 07:21:52 51°15.646 2°53.468 342.8 13.7 336.1 9.6
2002-02-28 07:21:57 51°15.663 2°53.456 343.8 13.7 336.4 9.6
2002-02-28 07:22:02 51°15.681 2°53.444 343.5 13.7 336.7 9.7
2002-02-28 07:22:07 51°15.698 2°53.432 343.8 13.7 335.8 9.7
2002-02-28 07:22:12 51°15.715 2°53.419 342.5 13.7 336.3 9.8
2002-02-28 07:22:17 51°15.732 2°53.405 341.3 13.7 334 9.7
2002-02-28 07:22:22 51°15.749 2°53.393 343.2 13.6 335.4 9.8
2002-02-28 07:22:27 51°15.766 2°53.38 342 13.6 334 10
2002-02-28 07:22:31 51°15.78 2°53.371 343 13.6 335.3 9.9
2002-02-28 07:22:37 51°15.8 2°53.354 341 13.5 334.4 9.9
2002-02-28 07:22:42 51°15.817 2°53.342 343 13.5 334.5 10
2002-02-28 07:22:47 51°15.834 2°53.328 341.3 13.5 333.9 10.1
2002-02-28 07:22:52 51°15.852 2°53.317 344 13.6 334.7 10.2
2002-02-28 07:22:57 51°15.869 2°53.304 342.3 13.5 335.2 10.2
2002-02-28 07:23:02 51°15.886 2°53.292 344.3 13.4 334.6 10.1
2002-02-28 07:23:07 51°15.903 2°53.279 342.5 13.5 335.8 10.2
2002-02-28 07:23:12 51°15.919 2°53.266 342.3 13.5 334.4 10.3
2002-02-28 07:23:17 51°15.936 2°53.253 342.3 13.5 334.7 10.3
2002-02-28 07:23:22 51°15.953 2°53.24 341.5 13.5 333.4 10.4
2002-02-28 07:23:27 51°15.969 2°53.227 341.3 13.5 333.8 10.5
2002-02-28 07:23:32 51°15.986 2°53.213 340.2 13.5 332.9 10.5
2002-02-28 07:23:37 51°16.003 2°53.2 341.7 13.5 333.5 10.5
2002-02-28 07:23:42 51°16.019 2°53.186 341.8 13.5 333.5 10.6
2002-02-28 07:23:47 51°16.037 2°53.175 343.8 13.5 335.3 10.6
2002-02-28 07:23:52 51°16.054 2°53.162 343.8 13.5 335.4 10.6
2002-02-28 07:23:57 51°16.071 2°53.152 345.8 13.4 337.2 10.7
2002-02-28 07:24:02 51°16.088 2°53.139 344 13.5 336.1 10.7
2002-02-28 07:24:07 51°16.105 2°53.129 345.8 13.4 338 10.6
2002-02-28 07:24:12 51°16.122 2°53.117 344 13.4 337.2 10.6
2002-02-28 07:24:17 51°16.14 2°53.106 345 13.4 337.3 10.6
2002-02-28 07:24:22 51°16.156 2°53.093 343.8 13.4 336.6 10.7
2002-02-28 07:24:27 51°16.174 2°53.082 345.8 13.4 337 10.8
2002-02-28 07:24:32 51°16.191 2°53.07 344.7 13.4 337.6 10.9
2002-02-28 07:24:37 51°16.208 2°53.061 347.2 13.4 337.8 11
2002-02-28 07:24:42 51°16.225 2°53.048 345.3 13.3 339.1 10.9
2002-02-28 07:24:47 51°16.242 2°53.038 345.8 13.3 337.3 10.8
2002-02-28 07:24:52 51°16.259 2°53.026 344.7 13.3 338.7 10.9
2002-02-28 07:24:57 51°16.276 2°53.015 345.2 13.3 336.7 10.9
2002-02-28 07:25:02 51°16.293 2°53.004 346.2 13.3 337.8 10.9
2002-02-28 07:25:07 51°16.31 2°52.992 344.2 13.4 336.5 10.9
2002-02-28 07:25:12 51°16.327 2°52.981 345.2 13.3 337.5 11
2002-02-28 07:25:17 51°16.344 2°52.969 343.8 13.3 336.5 10.9
2002-02-28 07:25:22 51°16.361 2°52.958 346 13.3 337.2 10.9
2002-02-28 07:25:27 51°16.378 2°52.945 343.2 13.3 336.4 10.8
2002-02-28 07:25:32 51°16.395 2°52.935 345.3 13.3 336.5 10.8
2002-02-28 07:25:37 51°16.412 2°52.923 344.2 13.4 337 10.8
2002-02-28 07:25:42 51°16.43 2°52.913 346.3 13.3 338.5 10.8
2002-02-28 07:25:47 51°16.446 2°52.901 344.8 13.3 338.3 10.7
2002-02-28 07:25:52 51°16.464 2°52.891 345.8 13.3 337.8 10.7
2002-02-28 07:25:57 51°16.481 2°52.879 344.7 13.3 338.3 10.5
2002-02-28 07:26:02 51°16.498 2°52.869 345.7 13.3 337.3 10.5
2002-02-28 07:26:07 51°16.515 2°52.857 345.3 13.3 338.7 10.3
2002-02-28 07:26:12 51°16.532 2°52.848 345.2 13.3 337.5 10.3
2002-02-28 07:26:17 51°16.549 2°52.836 345.2 13.2 338.5 10.3
2002-02-28 07:26:22 51°16.566 2°52.826 345.3 13.2 337.9 10.2
2002-02-28 07:26:27 51°16.583 2°52.814 345.2 13.2 338.2 10.1
2002-02-28 07:26:32 51°16.6 2°52.804 346 13.2 338.3 10.1
2002-02-28 07:26:37 51°16.617 2°52.793 345.5 13.2 338.6 9.9
2002-02-28 07:26:42 51°16.634 2°52.781 344 13.2 337.4 9.8
2002-02-28 07:26:47 51°16.65 2°52.771 344 13.2 337.4 9.8
2002-02-28 07:26:52 51°16.667 2°52.759 344 13.2 337.2 9.6
2002-02-28 07:26:57 51°16.684 2°52.749 345 13.1 338.1 9.3
2002-02-28 07:27:02 51°16.701 2°52.737 344 13.1 338 9.3
2002-02-28 07:27:07 51°16.718 2°52.728 345.8 13.1 338.8 9
2002-02-28 07:27:12 51°16.735 2°52.717 344.3 13.1 338.7 8.7
2002-02-28 07:27:17 51°16.752 2°52.708 346.2 13 339.4 8.5
2002-02-28 07:27:22 51°16.769 2°52.697 344.3 13 338.9 8.1
2002-02-28 07:27:27 51°16.785 2°52.687 345.8 12.8 339.3 8.2
2002-02-28 07:27:32 51°16.802 2°52.677 344.2 12.7 338.8 8.4
2002-02-28 07:27:37 51°16.818 2°52.667 345.5 12.7 338.9 8.3
2002-02-28 07:27:42 51°16.834 2°52.656 344.5 12.8 338.6 8
2002-02-28 07:27:47 51°16.851 2°52.647 345.8 12.8 338.9 7.9
2002-02-28 07:27:52 51°16.868 2°52.636 345.3 12.8 339.9 7.9
2002-02-28 07:27:57 51°16.884 2°52.627 345.2 12.8 339 8.1
2002-02-28 07:28:02 51°16.901 2°52.616 344.7 12.7 339.6 8.2
2002-02-28 07:28:07 51°16.917 2°52.606 344.8 12.7 338 8.3
2002-02-28 07:28:12 51°16.934 2°52.596 345.7 12.8 339 8.4
2002-02-28 07:28:17 51°16.95 2°52.585 345.3 12.8 338.6 8.6
2002-02-28 07:28:22 51°16.967 2°52.575 346.2 12.9 339.2 8.5
2002-02-28 07:28:27 51°16.984 2°52.565 345.8 13 339.4 8.3
2002-02-28 07:28:32 51°17.001 2°52.555 344.8 13.1 339.2 8
2002-02-28 07:28:37 51°17.018 2°52.545 346.5 13.1 339.3 8
2002-02-28 07:28:42 51°17.034 2°52.534 344.8 13 338.9 7.9
2002-02-28 07:28:46 51°17.048 2°52.527 346.3 12.8 339.3 8
2002-02-28 07:28:52 51°17.067 2°52.513 343.8 12.7 338.7 8.2
2002-02-28 07:28:57 51°17.083 2°52.503 344.8 12.7 338.1 8
2002-02-28 07:29:02 51°17.1 2°52.493 344.3 12.7 338.8 8.1
2002-02-28 07:29:07 51°17.116 2°52.481 343.8 12.8 337.2 8
2002-02-28 07:29:11 51°17.13 2°52.474 345.3 12.9 338.5 8.1
2002-02-28 07:29:17 51°17.15 2°52.46 343.8 13 337.3 8.3
2002-02-28 07:29:22 51°17.167 2°52.452 346.7 13 339 8.4
2002-02-28 07:29:27 51°17.183 2°52.44 344.8 13 338.6 8.4
2002-02-28 07:29:32 51°17.2 2°52.431 346.8 12.9 339.1 8.2
2002-02-28 07:29:37 51°17.217 2°52.42 345.2 13 339 8.4
2002-02-28 07:29:42 51°17.234 2°52.41 345.7 13 339.6 8.4
2002-02-28 07:29:47 51°17.251 2°52.4 344.2 13 339.3 8.3
2002-02-28 07:29:52 51°17.268 2°52.389 345.3 13.1 339.1 8.4
2002-02-28 07:29:57 51°17.284 2°52.378 344.2 13.1 338.2 8.7
2002-02-28 07:30:02 51°17.301 2°52.368 345.2 13.1 338.7 8.7
2002-02-28 07:30:07 51°17.318 2°52.356 342.3 13.1 337.1 8.7
2002-02-28 07:30:12 51°17.334 2°52.344 342.2 13.1 336.2 8.9
2002-02-28 07:30:17 51°17.351 2°52.33 338.7 13.1 334.3 9
2002-02-28 07:30:22 51°17.366 2°52.316 337.7 13.1 331.5 8.9
2002-02-28 07:30:27 51°17.382 2°52.302 337.3 13.2 331.2 9
2002-02-28 07:30:32 51°17.398 2°52.287 336.7 13.2 329.6 8.9
2002-02-28 07:30:37 51°17.414 2°52.272 336.5 13.2 330.2 9
2002-02-28 07:30:41 51°17.426 2°52.26 335.3 13.2 329.2 9
2002-02-28 07:30:46 51°17.442 2°52.245 334.8 13.1 328.9 8.9
2002-02-28 07:30:52 51°17.461 2°52.227 334.5 13.2 328.1 9
2002-02-28 07:30:57 51°17.476 2°52.211 334.2 13.2 327.9 9.1
2002-02-28 07:31:02 51°17.491 2°52.195 333.7 13.2 327.2 8.9
2002-02-28 07:31:07 51°17.507 2°52.18 334 13.2 327.9 9
2002-02-28 07:31:12 51°17.522 2°52.163 333.2 13.2 326.6 9
2002-02-28 07:31:17 51°17.537 2°52.148 334.3 13.2 327.1 8.9
2002-02-28 07:31:22 51°17.552 2°52.131 331.5 13.1 325.5 8.8
2002-02-28 07:31:27 51°17.567 2°52.114 331.7 13.1 325.2 8.8
2002-02-28 07:31:32 51°17.582 2°52.097 330.8 13.2 324.5 9
2002-02-28 07:31:38 51°17.6 2°52.077 331.5 13.2 324.6 8.9
2002-02-28 07:31:42 51°17.612 2°52.062 330.5 13.2 324.3 9
2002-02-28 07:31:47 51°17.627 2°52.046 331.7 13.2 324.5 9.1
2002-02-28 07:31:52 51°17.641 2°52.029 330.8 13.2 324.4 8.9
2002-02-28 07:31:57 51°17.656 2°52.013 332.2 13.1 324.9 8.9
2002-02-28 07:32:02 51°17.671 2°51.996 331.5 13 325.2 8.8
2002-02-28 07:32:07 51°17.686 2°51.98 332.3 13 325.9 8.7
2002-02-28 07:32:12 51°17.701 2°51.963 331 13.1 325.3 8.5
2002-02-28 07:32:17 51°17.716 2°51.947 331.3 13.1 325.9 8.6
2002-02-28 07:32:22 51°17.73 2°51.93 330 13.1 324.6 8.7
2002-02-28 07:32:27 51°17.745 2°51.913 331.2 13 324.8 8.6
2002-02-28 07:32:31 51°17.757 2°51.901 332 13 325 8.8
2002-02-28 07:32:37 51°17.775 2°51.881 332 13 325.4 8.7
2002-02-28 07:32:42 51°17.79 2°51.864 330.2 13.1 324.8 8.9
2002-02-28 07:32:47 51°17.804 2°51.846 328.5 13 323.9 8.8
2002-02-28 07:32:52 51°17.817 2°51.828 326.5 12.9 320.7 8.8
2002-02-28 07:32:57 51°17.83 2°51.808 323.3 12.9 320.1 8.9
2002-02-28 07:33:02 51°17.843 2°51.788 322.7 13 316.8 8.9
2002-02-28 07:33:07 51°17.855 2°51.767 319.8 13 314.7 9
2002-02-28 07:33:12 51°17.867 2°51.745 316.5 12.9 311.5 9
2002-02-28 07:33:17 51°17.878 2°51.722 315.8 13 309.9 9
2002-02-28 07:33:22 51°17.889 2°51.699 313.7 13.1 308.3 9
2002-02-28 07:33:27 51°17.898 2°51.674 308.5 13.1 304.8 9
2002-02-28 07:33:32 51°17.907 2°51.648 305.5 13 301.6 9
2002-02-28 07:33:37 51°17.914 2°51.622 301.3 13.1 297 9.1
2002-02-28 07:33:42 51°17.921 2°51.595 299.5 13.2 294 9.1
2002-02-28 07:33:47 51°17.927 2°51.567 297.2 13.3 292 9.1
2002-02-28 07:33:52 51°17.934 2°51.539 296 13.3 290.2 9.2
2002-02-28 07:33:57 51°17.94 2°51.512 295.3 13.3 289.9 9.3
2002-02-28 07:34:02 51°17.946 2°51.483 295 13.3 289.2 9.3
2002-02-28 07:34:07 51°17.952 2°51.455 295.2 13.4 289 9.4
2002-02-28 07:34:12 51°17.959 2°51.428 296.2 13.5 289.5 9.5
2002-02-28 07:34:17 51°17.965 2°51.4 296.8 13.4 290.5 9.5
2002-02-28 07:34:22 51°17.973 2°51.372 297.5 13.4 291.7 9.6
2002-02-28 07:34:27 51°17.98 2°51.345 298.7 13.4 292.2 9.7
2002-02-28 07:34:32 51°17.988 2°51.318 300.5 13.4 293.7 9.8
2002-02-28 07:34:37 51°17.995 2°51.291 300.5 13.4 294.2 9.9
2002-02-28 07:34:42 51°18.004 2°51.264 301.5 13.5 294.9 10
2002-02-28 07:34:47 51°18.012 2°51.237 301.7 13.5 295.3 10.1
2002-02-28 07:34:52 51°18.021 2°51.21 303.2 13.5 296 10.1
2002-02-28 07:34:57 51°18.029 2°51.184 303.2 13.5 296.8 10.3
2002-02-28 07:35:02 51°18.037 2°51.157 303.8 13.6 297.1 10.4
2002-02-28 07:35:07 51°18.046 2°51.13 302.7 13.6 296.9 10.5
2002-02-28 07:35:12 51°18.054 2°51.103 302 13.5 296.4 10.7
2002-02-28 07:35:17 51°18.061 2°51.076 301 13.5 295.1 10.8
2002-02-28 07:35:21 51°18.068 2°51.054 300 13.5 294.2 10.8
2002-02-28 07:35:27 51°18.076 2°51.021 298.3 13.5 292.9 11
2002-02-28 07:35:32 51°18.083 2°50.993 297.5 13.5 291.4 11
2002-02-28 07:35:37 51°18.089 2°50.965 295.8 13.5 290.6 11.2
2002-02-28 07:35:42 51°18.095 2°50.936 294.5 13.5 288.9 11.2
2002-02-28 07:35:47 51°18.101 2°50.908 294.7 13.5 288.7 11.5
2002-02-28 07:35:52 51°18.106 2°50.879 293.2 13.5 287.5 11.4
2002-02-28 07:35:57 51°18.112 2°50.851 293 13.5 287.6 11.5
2002-02-28 07:36:01 51°18.116 2°50.828 293.2 13.5 287.3 11.6
2002-02-28 07:36:07 51°18.122 2°50.793 293 13.5 287.1 11.6
2002-02-28 07:36:12 51°18.128 2°50.764 292.8 13.6 287 11.7
2002-02-28 07:36:17 51°18.133 2°50.736 293 13.6 286.9 11.6
2002-02-28 07:36:22 51°18.139 2°50.707 293 13.6 287.2 11.7
2002-02-28 07:36:27 51°18.144 2°50.678 293.7 13.6 287 11.7
2002-02-28 07:36:32 51°18.15 2°50.649 293.7 13.5 287.5 11.7
2002-02-28 07:36:37 51°18.156 2°50.622 294.7 13.4 288.1 11.8
2002-02-28 07:36:42 51°18.162 2°50.594 294.7 13.4 288.6 11.8
2002-02-28 07:36:47 51°18.168 2°50.566 294.5 13.4 288.6 11.9
2002-02-28 07:36:52 51°18.174 2°50.537 295 13.4 289.1 12
2002-02-28 07:36:57 51°18.18 2°50.509 295.3 13.4 288.6 12.1
2002-02-28 07:37:02 51°18.186 2°50.481 295.2 13.4 289.4 12.2
2002-02-28 07:37:06 51°18.191 2°50.459 294.8 13.4 288.7 12.3
2002-02-28 07:37:11 51°18.198 2°50.431 295.3 13.4 289.5 12.3
2002-02-28 07:37:17 51°18.204 2°50.397 294.8 13.5 288.5 12.5
2002-02-28 07:37:22 51°18.21 2°50.368 294.5 13.5 288.5 12.6
2002-02-28 07:37:27 51°18.215 2°50.34 293.5 13.4 287.8 12.6
2002-02-28 07:37:32 51°18.221 2°50.312 294.2 13.4 288.4 12.7
2002-02-28 07:37:37 51°18.227 2°50.284 293.8 13.4 288.3 12.8
2002-02-28 07:37:42 51°18.234 2°50.257 296.2 13.4 289 12.8
2002-02-28 07:37:47 51°18.24 2°50.232 298.5 12.7 291 12.6
2002-02-28 07:37:52 51°18.246 2°50.21 299.2 12 292.2 12.6
2002-02-28 07:37:57 51°18.251 2°50.188 297.8 11 292 12.6
2002-02-28 07:38:02 51°18.255 2°50.168 295.5 10 289.3 12.6
2002-02-28 07:38:07 51°18.258 2°50.148 293.2 9.5 287.4 12.8
2002-02-28 07:38:12 51°18.261 2°50.13 291 8.8 285 12.8
2002-02-28 07:38:17 51°18.263 2°50.113 289.5 8.3 283.7 12.9
2002-02-28 07:38:22 51°18.266 2°50.097 290 7.7 283.1 13
2002-02-28 07:38:27 51°18.268 2°50.082 289.3 7.4 283 13
2002-02-28 07:38:32 51°18.27 2°50.067 289.3 7.2 283.3 13
2002-02-28 07:38:37 51°18.272 2°50.053 289.8 6.8 283.7 13
2002-02-28 07:38:42 51°18.274 2°50.039 289.7 6.5 283.6 13
2002-02-28 07:38:47 51°18.277 2°50.027 290.3 6.1 284.8 13
2002-02-28 07:38:52 51°18.278 2°50.015 291 5.8 284.3 12.9
2002-02-28 07:38:57 51°18.281 2°50.004 291.3 5.5 285.5 13
2002-02-28 07:39:02 51°18.282 2°49.993 292.3 5.2 285.4 12.8
2002-02-28 07:39:07 51°18.284 2°49.983 292.2 4.9 285 12.9
2002-02-28 07:39:12 51°18.286 2°49.973 290.5 4.8 284.9 12.9
2002-02-28 07:39:18 51°18.287 2°49.962 289.7 4.5 283.1 12.9
2002-02-28 07:39:22 51°18.288 2°49.954 288 4.3 281.3 12.7
2002-02-28 07:39:27 51°18.289 2°49.946 285 4.2 279.8 12.8
2002-02-28 07:39:32 51°18.289 2°49.937 282.7 4.1 278.9 13
2002-02-28 07:39:37 51°18.29 2°49.929 280.8 3.9 277.2 12.8
2002-02-28 07:39:42 51°18.29 2°49.921 279 3.7 276.1 12.8
2002-02-28 07:39:47 51°18.29 2°49.913 277 3.6 274.3 12.9
2002-02-28 07:39:52 51°18.29 2°49.906 275.5 3.5 271.9 12.8
2002-02-28 07:39:57 51°18.29 2°49.899 272.7 3.3 269.2 12.7
2002-02-28 07:40:02 51°18.29 2°49.892 270.2 3.2 266 12.6
2002-02-28 07:40:07 51°18.29 2°49.884 268.7 3.2 267.8 12.7
2002-02-28 07:40:12 51°18.289 2°49.877 268.7 3.2 265.3 12.8
2002-02-28 07:40:17 51°18.288 2°49.87 267.7 3.3 266.3 12.9
2002-02-28 07:40:22 51°18.288 2°49.863 266.5 3.3 263.3 13
2002-02-28 07:40:27 51°18.287 2°49.857 266.2 3.1 264.1 12.9
2002-02-28 07:40:32 51°18.287 2°49.851 266.3 2.9 264.2 12.7
2002-02-28 07:40:37 51°18.286 2°49.845 267 2.6 262.5 12.8
2002-02-28 07:40:42 51°18.286 2°49.842 266.3 2 263.5 12.5
2002-02-28 07:40:47 51°18.286 2°49.839 266.2 1.7 262.3 12.6
2002-02-28 07:40:52 51°18.286 2°49.837 266 1.1 267.2 12.6
2002-02-28 07:40:57 51°18.286 2°49.836 266.5 0.7 270.5 12.7
2002-02-28 07:41:02 51°18.286 2°49.836 268.5 0.4 283.7 12.7
2002-02-28 07:41:07 51°18.287 2°49.835 270.8 0.3 297.9 12.7
2002-02-28 07:41:12 51°18.287 2°49.834 272.8 0.3 310.5 12.7
2002-02-28 07:41:17 51°18.288 2°49.834 275.5 0.3 319.5 12.7
2002-02-28 07:41:21 51°18.288 2°49.834 278.5 0.3 314.6 12.7
2002-02-28 07:41:27 51°18.288 2°49.834 281.2 0.3 335.2 12.8
2002-02-28 07:41:32 51°18.288 2°49.834 284.2 0.2 337.6 12.8
2002-02-28 07:41:38 51°18.289 2°49.834 287.2 0.2 353.4 -999
2002-02-28 07:41:43 51°18.289 2°49.834 290.8 0.2 1.5 -999
2002-02-28 07:41:48 51°18.289 2°49.834 293.8 0.2 34.4 12.6
2002-02-28 07:41:52 51°18.289 2°49.835 297 0.2 47.9 12.5
2002-02-28 07:41:57 51°18.289 2°49.836 300 0.3 67.5 12.4
2002-02-28 07:42:02 51°18.289 2°49.836 302.2 0.3 71.3 12.4
2002-02-28 07:42:07 51°18.289 2°49.837 305 0.3 93.6 12.4
2002-02-28 07:42:12 51°18.289 2°49.837 307.8 0.3 102.4 12.6
2002-02-28 07:42:17 51°18.288 2°49.838 310 0.4 116.4 12.7
2002-02-28 07:42:22 51°18.288 2°49.839 312.3 0.4 112.3 12.8
2002-02-28 07:42:27 51°18.288 2°49.84 314.7 0.4 124.9 12.9
2002-02-28 07:42:32 51°18.287 2°49.841 316.3 0.5 123.3 12.9
2002-02-28 07:42:37 51°18.287 2°49.842 318.3 0.5 132.1 12.7
2002-02-28 07:42:42 51°18.287 2°49.842 320.7 0.5 125.9 12.6
2002-02-28 07:42:47 51°18.286 2°49.843 322.7 0.5 134.2 12.6
2002-02-28 07:42:52 51°18.285 2°49.844 325.2 0.5 134.3 12.6
2002-02-28 07:42:57 51°18.285 2°49.845 326.8 0.4 136 12.7
2002-02-28 07:43:02 51°18.284 2°49.845 328.5 0.4 144.8 12.8
2002-02-28 07:43:07 51°18.284 2°49.845 330.5 0.4 143.3 12.9
2002-02-28 07:43:11 51°18.284 2°49.846 331.5 0.3 147.4 12.8
2002-02-28 07:43:17 51°18.284 2°49.846 331.8 0.3 140 12.7
2002-02-28 07:43:22 51°18.283 2°49.846 333.5 0.3 152.6 12.7
2002-02-28 07:43:26 51°18.283 2°49.847 334.5 0.2 134.2 12.8
2002-02-28 07:43:32 51°18.283 2°49.847 334.7 0.2 164.6 12.8
2002-02-28 07:43:37 51°18.282 2°49.847 335.3 0.2 149.5 12.8
2002-02-28 07:43:42 51°18.282 2°49.847 335.2 0.2 152.6 12.7
2002-02-28 07:43:47 51°18.282 2°49.848 334.5 0.2 137.8 12.4
2002-02-28 07:43:52 51°18.282 2°49.848 334.5 0.3 126.1 12.2
2002-02-28 07:43:57 51°18.282 2°49.848 334.2 0.3 121.3 12.2
2002-02-28 07:44:02 51°18.281 2°49.849 334.3 0.2 136.1 12.4
2002-02-28 07:44:07 51°18.281 2°49.849 334 0.2 139.9 12.6
2002-02-28 07:44:12 51°18.281 2°49.849 333.8 0.2 122 12.6
2002-02-28 07:44:17 51°18.281 2°49.849 333.2 0.2 112.8 12.7
2002-02-28 07:44:22 51°18.281 2°49.85 332.8 0.1 122 12.8
2002-02-28 07:44:27 51°18.281 2°49.85 332 0.1 105.1 12.7
2002-02-28 07:44:32 51°18.281 2°49.85 332 0.1 107.4 12.6
2002-02-28 07:44:37 51°18.281 2°49.851 331.3 0.2 75.1 12.5
2002-02-28 07:44:42 51°18.28 2°49.85 331.7 0.1 127.4 12.4
2002-02-28 07:44:47 51°18.28 2°49.851 332.3 0.1 172.9 12.5
2002-02-28 07:44:52 51°18.28 2°49.851 331.5   119.8 12.5
2002-02-28 07:44:57 51°18.28 2°49.851 330.2   210.6 12.6
2002-02-28 07:45:02 51°18.28 2°49.851 329.5 0.1 218.7 12.7
2002-02-28 07:45:07 51°18.28 2°49.851 329   236.9 12.8
2002-02-28 07:45:12 51°18.28 2°49.85 328.3 0.2 232.6 12.9
2002-02-28 07:45:17 51°18.28 2°49.85 328 0.1 228.3 12.8
2002-02-28 07:45:22 51°18.28 2°49.85 326.3 0.1 207.5 12.9
2002-02-28 07:45:27 51°18.28 2°49.85 324.5 0.1 188.1 12.9
2002-02-28 07:45:32 51°18.28 2°49.85 323.7 0.1 147.8 12.9
2002-02-28 07:45:37 51°18.279 2°49.85 322.5 0.1 177.4 12.8
2002-02-28 07:45:42 51°18.279 2°49.851 321.8 0.2 117.4 12.8
2002-02-28 07:45:47 51°18.279 2°49.851 321.5 0.2 143 12.8
2002-02-28 07:45:52 51°18.279 2°49.852 322 0.3 124.3 12.8
2002-02-28 07:45:57 51°18.278 2°49.853 320.5 0.4 117.5 12.7
2002-02-28 07:46:02 51°18.278 2°49.853 320.8 0.4 142.6 12.7
2002-02-28 07:46:07 51°18.277 2°49.854 322.2 0.5 137.4 12.8
2002-02-28 07:46:12 51°18.277 2°49.855 323 0.6 134.5 12.8
2002-02-28 07:46:17 51°18.276 2°49.856 323.3 0.6 129.2 12.7
2002-02-28 07:46:22 51°18.276 2°49.857 324.2 0.6 134.1 12.7
2002-02-28 07:46:27 51°18.275 2°49.858 324.7 0.7 129.5 12.7
2002-02-28 07:46:32 51°18.274 2°49.859 324.8 0.7 145.3 12.8
2002-02-28 07:46:37 51°18.273 2°49.86 326.8 0.7 142.7 12.9
2002-02-28 07:46:42 51°18.272 2°49.86 328 0.7 134.5 12.9
2002-02-28 07:46:47 51°18.272 2°49.862 327.5 0.6 132.5 12.8
2002-02-28 07:46:52 51°18.271 2°49.862 328.3 0.6 150.5 12.9
2002-02-28 07:46:57 51°18.27 2°49.863 329.3 0.5 134.4 12.9
2002-02-28 07:47:02 51°18.27 2°49.864 329.2 0.4 137.1 12.9
2002-02-28 07:47:07 51°18.27 2°49.864 330 0.3 135.1 13
2002-02-28 07:47:12 51°18.27 2°49.864 329.7 0.3 153.1 13
2002-02-28 07:47:18 51°18.269 2°49.864 329.7 0.2 147.6 13
2002-02-28 07:47:22 51°18.27 2°49.865 329 0.1 148.9 12.9
2002-02-28 07:47:27 51°18.27 2°49.864 328.2 0.1 228.1 12.8
2002-02-28 07:47:32 51°18.27 2°49.864 328 0.1 275.2 12.8
2002-02-28 07:47:37 51°18.27 2°49.864 327.3 0.1 288.3 12.8
2002-02-28 07:47:42 51°18.27 2°49.863 326.7 0.1 293 12.8
2002-02-28 07:47:47 51°18.27 2°49.863 326.3 0.2 286.6 12.8
2002-02-28 07:47:52 51°18.27 2°49.863 325.7 0.2 324.7 12.6
2002-02-28 07:47:57 51°18.27 2°49.862 325.3 0.2 312.3 12.4
2002-02-28 07:48:02 51°18.271 2°49.862 324.8 0.2 327.7 12.5
2002-02-28 07:48:07 51°18.27 2°49.862 324.3 0.2 320.3 12.4
2002-02-28 07:48:12 51°18.27 2°49.862 324.5 0.1 323.2 12.4
2002-02-28 07:48:17 51°18.271 2°49.862 323.7 0.1 344.6 12.5
2002-02-28 07:48:22 51°18.271 2°49.861 324.5 0.1 294.4 12.5
2002-02-28 07:48:27 51°18.271 2°49.861 324.7 0.2 298.6 12.7
2002-02-28 07:48:31 51°18.271 2°49.861 323.5 0.2 286.8 12.8
2002-02-28 07:48:37 51°18.271 2°49.861 322.5 0.2 304 12.8
2002-02-28 07:48:42 51°18.272 2°49.86 321.7 0.3 307.2 12.7
2002-02-28 07:48:47 51°18.272 2°49.86 320.3 0.2 320.2 12.6
2002-02-28 07:48:52 51°18.272 2°49.859 319.7 0.2 306.6 12.7
2002-02-28 07:48:57 51°18.272 2°49.859 318.2 0.2 300.4 12.8
2002-02-28 07:49:02 51°18.272 2°49.859 317 0.3 297.5 13
2002-02-28 07:49:07 51°18.272 2°49.858 315.7 0.2 313.9 12.9
2002-02-28 07:49:12 51°18.272 2°49.858 314.5 0.2 306.8 12.8
2002-02-28 07:49:17 51°18.272 2°49.857 314.2 0.2 296.8 12.9
2002-02-28 07:49:22 51°18.272 2°49.857 314.5 0.2 291.3 12.9
2002-02-28 07:49:27 51°18.273 2°49.857 313.3 0.2 309.8 12.9
2002-02-28 07:49:32 51°18.273 2°49.856 312.7 0.2 307.5 12.9
2002-02-28 07:49:37 51°18.273 2°49.856 312.3 0.2 334.6 12.7
2002-02-28 07:49:42 51°18.273 2°49.856 312.3 0.2 325.3 12.6
2002-02-28 07:49:47 51°18.273 2°49.856 312.8 0.2 341 12.7
2002-02-28 07:49:52 51°18.273 2°49.856 313 0.1 335.2 12.7
2002-02-28 07:49:57 51°18.274 2°49.856 312.8 0.1 327.7 12.9
2002-02-28 07:50:02 51°18.274 2°49.856 312.8 0.1 328.8 13
2002-02-28 07:50:07 51°18.274 2°49.856 312.7 0.2 348.7 13
2002-02-28 07:50:12 51°18.274 2°49.855 312.2 0.2 328.1 13
2002-02-28 07:50:17 51°18.275 2°49.855 312 0.2 333.2 13
2002-02-28 07:50:22 51°18.275 2°49.855 311.8 0.2 322.3 12.9
2002-02-28 07:50:27 51°18.275 2°49.854 311 0.2 318.4 12.9
2002-02-28 07:50:32 51°18.275 2°49.854 310.8 0.3 330.9 12.8
2002-02-28 07:50:37 51°18.276 2°49.854 310.5 0.2 322.6 12.7
2002-02-28 07:50:42 51°18.276 2°49.854 310.5 0.2 333.1 12.6
2002-02-28 07:50:47 51°18.276 2°49.854 311 0.1 323.4 12.6
2002-02-28 07:50:52 51°18.276 2°49.854 310.8 0.1 341.1 12.6
2002-02-28 07:50:57 51°18.276 2°49.854 310.7 0.1 310.9 12.7
2002-02-28 07:51:02 51°18.276 2°49.854 311.3   318.2 12.7
2002-02-28 07:51:07 51°18.276 2°49.854 311.2   349.4 12.8
2002-02-28 07:51:12 51°18.275 2°49.854 311   188.6 12.8
2002-02-28 07:51:17 51°18.275 2°49.854 311.3 0.1 223.2 12.8
2002-02-28 07:51:22 51°18.275 2°49.854 311.2   216.9 12.9
2002-02-28 07:51:27 51°18.275 2°49.854 311 0.1 239.6 12.9
2002-02-28 07:51:32 51°18.275 2°49.853 311.2 0.1 261.3 12.8
2002-02-28 07:51:37 51°18.275 2°49.853 311.3 0.1 324.6 12.8
2002-02-28 07:51:42 51°18.275 2°49.853 311 0.1 256.2 12.9
2002-02-28 07:51:47 51°18.275 2°49.853 311.3 0.1 268.5 12.9
2002-02-28 07:51:52 51°18.275 2°49.853 311.7 0.1 290.6 12.8
2002-02-28 07:51:57 51°18.275 2°49.853 311.5 0.1 317.5 12.8
2002-02-28 07:52:02 51°18.276 2°49.853 312.7   351.4 12.7
2002-02-28 07:52:07 51°18.276 2°49.853 313.8 0.1 26.6 12.5
2002-02-28 07:52:12 51°18.275 2°49.853 314.8 0.1 35 12.4
2002-02-28 07:52:17 51°18.275 2°49.852 315.7   332.7 12.4
2002-02-28 07:52:22 51°18.275 2°49.852 315.3 0.1 311.1 12.6
2002-02-28 07:52:27 51°18.275 2°49.852 315.2 0.1 288 12.7
2002-02-28 07:52:32 51°18.275 2°49.852 315 0.1 299.5 12.8
2002-02-28 07:52:37 51°18.275 2°49.852 314.8 0.1 283.6 12.9
2002-02-28 07:52:42 51°18.276 2°49.852 315.2 0.1 302.4 12.9
2002-02-28 07:52:47 51°18.276 2°49.851 315 0.1 306.3 12.8
2002-02-28 07:52:52 51°18.276 2°49.851 314.8 0.1 290.6 12.8
2002-02-28 07:52:57 51°18.276 2°49.851 315.2 0.1 298.1 12.7
2002-02-28 07:53:02 51°18.276 2°49.851 315 0.1 313.8 12.7
2002-02-28 07:53:07 51°18.276 2°49.851 315.3 0.1 274.7 12.7
2002-02-28 07:53:12 51°18.276 2°49.851 315.5 0.1 308.8 12.7
2002-02-28 07:53:17 51°18.276 2°49.85 315.2 0.2 281.1 12.7
2002-02-28 07:53:21 51°18.276 2°49.85 315.3 0.1 300.6 12.8
2002-02-28 07:53:27 51°18.276 2°49.85 315.3 0.1 295.2 12.8
2002-02-28 07:53:31 51°18.276 2°49.85 315.7 0.1 304.5 12.7
2002-02-28 07:53:37 51°18.276 2°49.85 315.7 0.1 280.3 12.7
2002-02-28 07:53:42 51°18.276 2°49.849 315.8 0.1 313.6 12.7
2002-02-28 07:53:47 51°18.277 2°49.849 315.2 0.1 345.1 12.6
2002-02-28 07:53:51 51°18.276 2°49.849 315.2 0.1 303.6 12.6
2002-02-28 07:53:57 51°18.276 2°49.849 316   257.5 12.6
2002-02-28 07:54:02 51°18.277 2°49.85 316.2 0.1 281.3 12.6
2002-02-28 07:54:07 51°18.277 2°49.849 316   348.2 12.6
2002-02-28 07:54:12 51°18.277 2°49.849 316.3 0.1 336.9 12.7
2002-02-28 07:54:17 51°18.276 2°49.849 316.3 0.1 232.1 12.7
2002-02-28 07:54:22 51°18.276 2°49.848 316.2   263.9 12.7
2002-02-28 07:54:27 51°18.277 2°49.849 315.7 0.1 308.5 12.6
2002-02-28 07:54:32 51°18.277 2°49.849 315.3   346.6 12.4
2002-02-28 07:54:37 51°18.277 2°49.848 315.8 0.1 326.8 12.3
2002-02-28 07:54:42 51°18.277 2°49.849 315 0.1 300 12.3
2002-02-28 07:54:47 51°18.276 2°49.848 315 0.1 250.1 12.4
2002-02-28 07:54:52 51°18.277 2°49.848 315.3 0.1 252.5 12.6
2002-02-28 07:54:57 51°18.277 2°49.848 314.8 0.1 284.9 12.8
2002-02-28 07:55:02 51°18.277 2°49.848 314.2 0.1 287.4 12.8
2002-02-28 07:55:07 51°18.277 2°49.847 314 0.1 296.6 12.9
2002-02-28 07:55:12 51°18.277 2°49.847 314.2 0.1 263.7 12.9
2002-02-28 07:55:17 51°18.276 2°49.847 314.7 0.1 266.2 12.9
2002-02-28 07:55:22 51°18.277 2°49.847 314.3 0.1 268.6 12.9
2002-02-28 07:55:27 51°18.276 2°49.847 314.3   208.7 12.9
2002-02-28 07:55:31 51°18.276 2°49.847 315   259.8 12.9
2002-02-28 07:55:37 51°18.276 2°49.847 315.3   298.6 12.9
2002-02-28 07:55:42 51°18.276 2°49.847 314.8   52.2 12.8
2002-02-28 07:55:47 51°18.277 2°49.847 314.8 0.1 5.8 12.6
2002-02-28 07:55:52 51°18.277 2°49.847 315.5   43.3 12.6
2002-02-28 07:55:57 51°18.277 2°49.847 316.3   158.3 12.6
2002-02-28 07:56:02 51°18.276 2°49.847 317.5 0.1 228.4 12.8
2002-02-28 07:56:07 51°18.277 2°49.847 317.7   14.1 12.8
2002-02-28 07:56:12 51°18.277 2°49.846 317.5 0.1 235.7 12.9
2002-02-28 07:56:17 51°18.276 2°49.846 317.7 0.1 276.3 12.9
2002-02-28 07:56:22 51°18.276 2°49.846 316.8 0.2 261 12.9
2002-02-28 07:56:27 51°18.276 2°49.846 316.8 0.1 281.8 12.9
2002-02-28 07:56:32 51°18.276 2°49.845 316.3 0.2 244.1 12.9
2002-02-28 07:56:37 51°18.276 2°49.845 316.3 0.1 270.5 12.9
2002-02-28 07:56:42 51°18.276 2°49.845 315.5 0.2 254.7 13
2002-02-28 07:56:47 51°18.276 2°49.844 315 0.2 256.6 13
2002-02-28 07:56:52 51°18.276 2°49.844 313.3 0.1 273.1 12.9
2002-02-28 07:56:57 51°18.276 2°49.844 313 0.1 282.7 12.9
2002-02-28 07:57:02 51°18.276 2°49.843 313.3 0.1 278 12.8
2002-02-28 07:57:07 51°18.276 2°49.843 313.5 0.1 284.6 12.8
2002-02-28 07:57:12 51°18.276 2°49.843 313.2 0.1 313.5 12.8
2002-02-28 07:57:18 51°18.276 2°49.843 313 0.1 276 12.7
2002-02-28 07:57:22 51°18.276 2°49.842 313.2 0.1 287.8 12.7
2002-02-28 07:57:27 51°18.276 2°49.842 312.2 0.2 284.6 12.7
2002-02-28 07:57:32 51°18.276 2°49.842 312.2 0.2 289 12.8
2002-02-28 07:57:37 51°18.276 2°49.842 311.8 0.1 325.5 12.7
2002-02-28 07:57:42 51°18.277 2°49.842 310.8 0.2 333.9 12.7
2002-02-28 07:57:47 51°18.277 2°49.841 311.2 0.2 312.1 12.7
2002-02-28 07:57:52 51°18.277 2°49.841 311.5 0.2 340.7 12.7
2002-02-28 07:57:57 51°18.277 2°49.841 312.2 0.1 311.7 12.7
2002-02-28 07:58:01 51°18.277 2°49.841 312.8 0.1 347.6 12.7
2002-02-28 07:58:07 51°18.277 2°49.841 313.3 0.1 339.5 12.7
2002-02-28 07:58:12 51°18.277 2°49.841 313.7 0.2 332.5 12.7
2002-02-28 07:58:17 51°18.278 2°49.841 313.5 0.1 321.1 12.7
2002-02-28 07:58:22 51°18.278 2°49.841 314.2 0.1 342.5 12.7
2002-02-28 07:58:27 51°18.278 2°49.84 314.7 0.1 310.2 12.7
2002-02-28 07:58:32 51°18.278 2°49.84 315.5 0.1 339.8 12.8
2002-02-28 07:58:37 51°18.278 2°49.84 315.2 0.1 287.3 12.9
2002-02-28 07:58:42 51°18.278 2°49.84 315.2 0.1 279.5 12.9
2002-02-28 07:58:47 51°18.278 2°49.839 315.8 0.1 276.5 12.9
2002-02-28 07:58:52 51°18.278 2°49.839 316.2 0.2 258 12.9
2002-02-28 07:58:57 51°18.278 2°49.839 316 0.1 300.1 12.9
2002-02-28 07:59:02 51°18.278 2°49.839 315.2 0.2 253.2 12.9
2002-02-28 07:59:07 51°18.278 2°49.838 315.5 0.1 263.1 12.9
2002-02-28 07:59:12 51°18.278 2°49.838 315.5 0.1 270.2 12.9
2002-02-28 07:59:17 51°18.278 2°49.838 315 0.2 301.3 12.9
2002-02-28 07:59:22 51°18.278 2°49.838 314.5 0.1 286.7 12.8
2002-02-28 07:59:27 51°18.278 2°49.838 314.2 0.1 292.9 12.9
2002-02-28 07:59:32 51°18.278 2°49.838 314 0.2 349.8 12.8
2002-02-28 07:59:37 51°18.278 2°49.837 313.3 0.1 305.2 12.7
2002-02-28 07:59:42 51°18.278 2°49.837 313.2 0.1 307.2 12.7
2002-02-28 07:59:47 51°18.278 2°49.837 313.3 0.1 262.5 12.7
2002-02-28 07:59:52 51°18.278 2°49.837 314.2 0.1 240.3 12.8
2002-02-28 07:59:57 51°18.278 2°49.837 313.8 0.1 291.8 12.7
2002-02-28 08:00:02 51°18.278 2°49.836 314 0.1 278.9 12.6
2002-02-28 08:00:07 51°18.278 2°49.836 314.7 0.1 240.8 12.7
2002-02-28 08:00:12 51°18.278 2°49.836 315.3 0.2 228 12.8
2002-02-28 08:00:17 51°18.278 2°49.835 315.3 0.2 235.3 12.8
2002-02-28 08:00:22 51°18.278 2°49.835 315.3 0.1 236.3 12.8
2002-02-28 08:00:27 51°18.278 2°49.835 315.2 0.1 235.6 12.8
2002-02-28 08:00:32 51°18.277 2°49.835 315.7 0.1 205.8 12.8
2002-02-28 08:00:37 51°18.277 2°49.835 316 0.1 208.3 12.8
2002-02-28 08:00:42 51°18.277 2°49.835 317 0.1 177.9 12.8
2002-02-28 08:00:47 51°18.276 2°49.835 318.2 0.2 159.4 12.7
2002-02-28 08:00:52 51°18.276 2°49.835 318.5 0.2 160.6 12.7
2002-02-28 08:00:57 51°18.276 2°49.835 319.3 0.2 154.9 12.7
2002-02-28 08:01:02 51°18.276 2°49.836 320.2 0.2 147.7 12.8
2002-02-28 08:01:07 51°18.275 2°49.836 320.8 0.2 171.6 12.9
2002-02-28 08:01:12 51°18.275 2°49.836 321.5 0.2 165 13
2002-02-28 08:01:17 51°18.275 2°49.836 321.2 0.1 105.7 12.9
2002-02-28 08:01:22 51°18.275 2°49.837 321 0.3 88 12.7
2002-02-28 08:01:27 51°18.275 2°49.837 322.3 0.2 124.4 12.5
2002-02-28 08:01:32 51°18.274 2°49.837 324.3 0.3 122.6 12.5
2002-02-28 08:01:37 51°18.274 2°49.838 325.5 0.2 158.4 12.6
2002-02-28 08:01:42 51°18.274 2°49.837 325.8 0.2 112.2 12.8
2002-02-28 08:01:47 51°18.274 2°49.838 325.2 0.1 131.4 13
2002-02-28 08:01:52 51°18.274 2°49.838 325.7 0.2 161.1 13.2
2002-02-28 08:01:57 51°18.273 2°49.838 326.5 0.1 146.6 13.2
2002-02-28 08:02:02 51°18.273 2°49.838 325.2 0.1 159.1 13.2
2002-02-28 08:02:07 51°18.273 2°49.838 324.7 0.1 175.8 13.2
2002-02-28 08:02:12 51°18.272 2°49.838 325 0.1 191.2 13.2
2002-02-28 08:02:17 51°18.272 2°49.838 324.8 0.1 165.3 13
2002-02-28 08:02:22 51°18.273 2°49.838 324.2 0.1 173.2 12.9
2002-02-28 08:02:27 51°18.272 2°49.838 324.2   157.5 12.9
2002-02-28 08:02:32 51°18.273 2°49.838 323.3 0.1 37.4 12.8
2002-02-28 08:02:37 51°18.272 2°49.838 322.7 0.1 262.8 12.8
2002-02-28 08:02:42 51°18.272 2°49.838 323.3   189.1 12.8
2002-02-28 08:02:47 51°18.272 2°49.838 323.5 0.1 213.3 12.8
2002-02-28 08:02:52 51°18.272 2°49.838 323.2   353.9 12.9
2002-02-28 08:02:57 51°18.272 2°49.838 322.5 0.1 238.9 12.9
2002-02-28 08:03:02 51°18.272 2°49.838 322.5   158.8 12.9
2002-02-28 08:03:07 51°18.272 2°49.838 323.2   89 12.8
2002-02-28 08:03:12 51°18.272 2°49.838 323.2   271.5 12.7
2002-02-28 08:03:17 51°18.272 2°49.838 323.2   197.2 12.8
2002-02-28 08:03:22 51°18.272 2°49.838 323.5 0.1 245.2 12.9
2002-02-28 08:03:27 51°18.272 2°49.837 323.5 0.1 239.4 13
2002-02-28 08:03:32 51°18.272 2°49.837 323.5 0.1 243 13.1
2002-02-28 08:03:37 51°18.272 2°49.837 323.7 0.1 254.7 13
2002-02-28 08:03:42 51°18.272 2°49.836 323.8 0.1 246.3 13
2002-02-28 08:03:47 51°18.272 2°49.836 324 0.2 248.3 13
2002-02-28 08:03:52 51°18.271 2°49.836 324 0.2 246.9 13
2002-02-28 08:03:57 51°18.271 2°49.836 323.5 0.2 245.7 13
2002-02-28 08:04:02 51°18.271 2°49.835 322.8 0.2 265.8 12.9
2002-02-28 08:04:07 51°18.27 2°49.836 322.3 0.1 248.6 12.9
2002-02-28 08:04:12 51°18.27 2°49.835 322.2 0.1 250 12.7
2002-02-28 08:04:17 51°18.27 2°49.835 322.5 0.1 255.4 12.6
2002-02-28 08:04:22 51°18.27 2°49.834 322.2 0.1 276 12.6
2002-02-28 08:04:27 51°18.27 2°49.834 322 0.1 275.1 12.7
2002-02-28 08:04:32 51°18.27 2°49.834 322.2 0.1 301.1 12.8
2002-02-28 08:04:37 51°18.27 2°49.834 321.7 0.1 287.9 13
2002-02-28 08:04:42 51°18.27 2°49.833 320.8 0.1 305.3 13
2002-02-28 08:04:47 51°18.27 2°49.833 320.3 0.1 294 12.9
2002-02-28 08:04:52 51°18.27 2°49.833 320.8 0.1 315.4 12.9
2002-02-28 08:04:57 51°18.27 2°49.833 321 0.1 303.6 12.9
2002-02-28 08:05:02 51°18.27 2°49.832 321.8 0.1 322.3 12.8
2002-02-28 08:05:07 51°18.271 2°49.832 321.8 0.1 320.5 12.9
2002-02-28 08:05:12 51°18.271 2°49.832 321.2 0.1 287.8 13
2002-02-28 08:05:17 51°18.27 2°49.831 321.3 0.2 278.7 13.1
2002-02-28 08:05:22 51°18.27 2°49.831 320.5 0.2 284.6 13.2
2002-02-28 08:05:27 51°18.271 2°49.831 319.5 0.2 289.6 13.2
2002-02-28 08:05:32 51°18.271 2°49.83 319.7 0.2 288.9 13.2
2002-02-28 08:05:37 51°18.271 2°49.83 319.5 0.2 303.3 13.1
2002-02-28 08:05:42 51°18.271 2°49.829 319.3 0.2 289.4 13
2002-02-28 08:05:47 51°18.271 2°49.829 320.5 0.2 277.3 13
2002-02-28 08:05:52 51°18.271 2°49.829 320.8 0.2 305.5 12.9
2002-02-28 08:05:57 51°18.271 2°49.828 320.7 0.2 311.9 12.6
2002-02-28 08:06:02 51°18.272 2°49.828 320.2 0.2 327.9 12.4
2002-02-28 08:06:07 51°18.272 2°49.827 319.5 0.2 306.4 12.4
2002-02-28 08:06:12 51°18.272 2°49.827 320.2 0.2 322.5 12.3
2002-02-28 08:06:17 51°18.272 2°49.827 321 0.3 307.4 12.4
2002-02-28 08:06:22 51°18.272 2°49.826 320.7 0.3 322.7 12.5
2002-02-28 08:06:27 51°18.273 2°49.825 319.5 0.3 303.7 12.7
2002-02-28 08:06:32 51°18.273 2°49.825 318.7 0.3 296.9 12.8
2002-02-28 08:06:37 51°18.273 2°49.824 318.8 0.3 295 13
2002-02-28 08:06:42 51°18.273 2°49.824 317.7 0.3 298.9 13
2002-02-28 08:06:47 51°18.274 2°49.823 316.7 0.3 294.9 13.1
2002-02-28 08:06:52 51°18.274 2°49.823 316.3 0.3 316.6 13
2002-02-28 08:06:57 51°18.274 2°49.823 316.7 0.3 333.7 12.9
2002-02-28 08:07:02 51°18.274 2°49.823 316.5 0.2 331.3 12.8
2002-02-28 08:07:07 51°18.275 2°49.822 316.7 0.2 299.7 12.9
2002-02-28 08:07:12 51°18.275 2°49.822 316.3 0.2 319.6 13
2002-02-28 08:07:17 51°18.275 2°49.822 316.8 0.2 322.5 12.9
2002-02-28 08:07:22 51°18.275 2°49.822 316.8 0.2 292.2 13
2002-02-28 08:07:27 51°18.275 2°49.821 317.2 0.2 315.8 12.9
2002-02-28 08:07:32 51°18.276 2°49.821 317 0.2 320.5 12.7
2002-02-28 08:07:37 51°18.276 2°49.821 316.7 0.2 12.9 12.6
2002-02-28 08:07:42 51°18.276 2°49.821 317 0.1 337.9 12.6
2002-02-28 08:07:47 51°18.276 2°49.821 317.2 0.2 14.8 12.6
2002-02-28 08:07:52 51°18.276 2°49.821 317.3   271.6 12.6
2002-02-28 08:07:57 51°18.276 2°49.821 317.8   226.2 12.6
2002-02-28 08:08:02 51°18.276 2°49.821 318.5 0.1 189.3 12.7
2002-02-28 08:08:07 51°18.276 2°49.821 318.5 0.1 194.7 12.9
2002-02-28 08:08:12 51°18.276 2°49.821 318 0.1 193.4 13
2002-02-28 08:08:17 51°18.276 2°49.821 318 0.1 134.1 13.1
2002-02-28 08:08:22 51°18.276 2°49.821 317.7 0.1 146.7 13.1
2002-02-28 08:08:27 51°18.276 2°49.822 317.8 0.1 123.1 13
2002-02-28 08:08:31 51°18.275 2°49.821 318.2 0.1 141.4 13.1
2002-02-28 08:08:37 51°18.276 2°49.822 318.5 0.1 105.3 13
2002-02-28 08:08:42 51°18.275 2°49.822 317.7 0.1 154.8 12.9
2002-02-28 08:08:47 51°18.275 2°49.822 318.8 0.1 126 12.9
2002-02-28 08:08:52 51°18.275 2°49.822 319.2 0.1 159.6 13
2002-02-28 08:08:57 51°18.275 2°49.823 318.2 0.1 163.5 13
2002-02-28 08:09:02 51°18.275 2°49.822 318.5 0.1 133.2 12.8
2002-02-28 08:09:07 51°18.275 2°49.824 319 0.2 92.6 12.6
2002-02-28 08:09:12 51°18.276 2°49.825 320.7 0.2 126.9 12.6
2002-02-28 08:09:17 51°18.275 2°49.825 322.5 0.3 115.4 12.3
2002-02-28 08:09:22 51°18.275 2°49.826 324.5 0.3 111.3 12.3
2002-02-28 08:09:27 51°18.275 2°49.826 324.7 0.3 132.6 12.4
2002-02-28 08:09:32 51°18.274 2°49.826 325.3 0.4 148.8 12.7
2002-02-28 08:09:37 51°18.273 2°49.826 325.5 0.3 165 12.9
2002-02-28 08:09:42 51°18.273 2°49.827 325.2 0.3 140.1 13
2002-02-28 08:09:47 51°18.273 2°49.827 324.8 0.3 133.9 13
2002-02-28 08:09:52 51°18.273 2°49.827 325.2 0.3 130.6 12.9
2002-02-28 08:09:57 51°18.273 2°49.828 325.3 0.2 120.4 12.8
2002-02-28 08:10:02 51°18.273 2°49.828 325.2 0.2 121.4 12.9
2002-02-28 08:10:07 51°18.273 2°49.829 325.3 0.2 141.3 13
2002-02-28 08:10:12 51°18.272 2°49.829 325.8 0.2 125.1 12.9
2002-02-28 08:10:17 51°18.272 2°49.829 324.8 0.2 138.4 12.9
2002-02-28 08:10:22 51°18.272 2°49.829 324.3 0.2 151.9 13.1
2002-02-28 08:10:27 51°18.272 2°49.829 324.8 0.2 151.2 13.1
2002-02-28 08:10:32 51°18.272 2°49.829 324 0.1 130.6 13.1
2002-02-28 08:10:37 51°18.271 2°49.829 323.5 0.1 174.5 13.1
2002-02-28 08:10:42 51°18.271 2°49.83 323 0.1 162.8 13.1
2002-02-28 08:10:47 51°18.272 2°49.83 323.7 0.1 114.3 13
2002-02-28 08:10:52 51°18.271 2°49.83 324.2 0.1 156.5 12.8
2002-02-28 08:10:57 51°18.271 2°49.83 324.5 0.1 83.8 12.5
2002-02-28 08:11:02 51°18.271 2°49.83 324.2   117.5 12.4
2002-02-28 08:11:07 51°18.271 2°49.83 324.2 0.1 64.6 12.6
2002-02-28 08:11:12 51°18.271 2°49.83 323.8 0.1 252.5 12.7
2002-02-28 08:11:18 51°18.271 2°49.83 323.8   277.9 12.9
2002-02-28 08:11:22 51°18.271 2°49.83 323.5   248.6 13
2002-02-28 08:11:27 51°18.271 2°49.83 322.5 0.1 268.5 13.2
2002-02-28 08:11:32 51°18.271 2°49.829 322.5 0.1 285.1 13.1
2002-02-28 08:11:37 51°18.271 2°49.829 321.7 0.1 310.1 13
2002-02-28 08:11:42 51°18.27 2°49.828 320.7 0.2 283.9 13
2002-02-28 08:11:48 51°18.271 2°49.828 320.5 0.2 302.1 13
2002-02-28 08:11:52 51°18.271 2°49.827 320.2 0.2 301.9 12.9
2002-02-28 08:11:57 51°18.271 2°49.827 319.7 0.2 290.5 12.9
2002-02-28 08:12:02 51°18.271 2°49.827 319.8 0.2 282.3 12.9
2002-02-28 08:12:07 51°18.271 2°49.827 319 0.2 301.4 13
2002-02-28 08:12:12 51°18.271 2°49.826 318 0.2 288.1 13
2002-02-28 08:12:17 51°18.271 2°49.826 316.8 0.2 287.6 13
2002-02-28 08:12:22 51°18.271 2°49.826 316.2 0.2 278.4 13.1
2002-02-28 08:12:27 51°18.271 2°49.825 315.5 0.2 277.2 13
2002-02-28 08:12:32 51°18.271 2°49.824 315.2 0.2 289.9 13
2002-02-28 08:12:37 51°18.272 2°49.824 314.2 0.2 281.9 13
2002-02-28 08:12:42 51°18.272 2°49.823 313.8 0.2 276.4 13
2002-02-28 08:12:47 51°18.272 2°49.823 313.5 0.2 286.8 13
2002-02-28 08:12:52 51°18.272 2°49.823 314 0.2 277 13
2002-02-28 08:12:57 51°18.272 2°49.822 314 0.3 310.6 12.9
2002-02-28 08:13:02 51°18.272 2°49.822 312.8 0.2 312.8 13
2002-02-28 08:13:07 51°18.273 2°49.821 313.3 0.2 307.5 13
2002-02-28 08:13:11 51°18.273 2°49.821 314.2 0.2 328 13
2002-02-28 08:13:17 51°18.273 2°49.821 314.5 0.2 343.6 12.9
2002-02-28 08:13:22 51°18.273 2°49.821 315.8 0.1 323.1 12.9
2002-02-28 08:13:27 51°18.273 2°49.821 316.8 0.2 340.6 13
2002-02-28 08:13:32 51°18.273 2°49.821 317.5 0.1 332.9 13
2002-02-28 08:13:38 51°18.273 2°49.821 317.8 0.1 341.8 13.1
2002-02-28 08:13:42 51°18.274 2°49.821 318 0.1 319.7 13.1
2002-02-28 08:13:47 51°18.273 2°49.82 318.7 0.1 290.9 13
2002-02-28 08:13:52 51°18.274 2°49.821 319.7   2.7 13
2002-02-28 08:13:57 51°18.274 2°49.821 319.5 0.1 20 12.8
2002-02-28 08:14:02 51°18.273 2°49.821 321 0.1 329.2 12.6
2002-02-28 08:14:07 51°18.274 2°49.82 321.7 0.1 312.7 12.7
2002-02-28 08:14:12 51°18.274 2°49.82 320.2 0.1 278.4 12.9
2002-02-28 08:14:17 51°18.274 2°49.82 319.8 0.1 258.9 13
2002-02-28 08:14:22 51°18.274 2°49.82 319.7 0.1 294 13.2
2002-02-28 08:14:27 51°18.274 2°49.82 319.5 0.1 327.8 13.2
2002-02-28 08:14:32 51°18.274 2°49.82 319.8 0.1 356.6 13.1
2002-02-28 08:14:37 51°18.274 2°49.82 320.7   343.2 12.9
2002-02-28 08:14:42 51°18.274 2°49.82 320.3   79.6 12.9
2002-02-28 08:14:47 51°18.274 2°49.82 319.7   2.3 12.9
2002-02-28 08:14:52 51°18.274 2°49.82 320 0.1 4.7 12.9
2002-02-28 08:14:57 51°18.274 2°49.82 319.8 0.1 48.1 12.8
2002-02-28 08:15:02 51°18.274 2°49.82 320 0.1 211.4 12.9
2002-02-28 08:15:07 51°18.274 2°49.82 320.7 0.1 135.8 13
2002-02-28 08:15:12 51°18.274 2°49.82 320.3 0.1 210.6 13.1
2002-02-28 08:15:17 51°18.273 2°49.82 320.3   163.7 13.1
2002-02-28 08:15:22 51°18.274 2°49.821 319.8 0.1 178.6 13.2
2002-02-28 08:15:27 51°18.274 2°49.821 319.3   140.9 13.2
2002-02-28 08:15:32 51°18.274 2°49.821 319.3 0.1 154.7 13.2
2002-02-28 08:15:37 51°18.274 2°49.821 319.5 0.1 199.3 13.1
2002-02-28 08:15:42 51°18.273 2°49.82 319.7 0.1 134.8 13
2002-02-28 08:15:47 51°18.273 2°49.82 320.3 0.1 117.4 12.9
2002-02-28 08:15:52 51°18.272 2°49.82 322.2 0.2 174 12.9
2002-02-28 08:15:57 51°18.272 2°49.82 324 0.2 143.4 12.9
2002-02-28 08:16:02 51°18.271 2°49.82 324 0.1 142.3 13
2002-02-28 08:16:07 51°18.272 2°49.821 324.2 0.1 136.1 13.1
2002-02-28 08:16:12 51°18.271 2°49.82 324.5 0.2 166.1 13.2
2002-02-28 08:16:17 51°18.271 2°49.821 324.3 0.1 147.6 13.4
2002-02-28 08:16:22 51°18.271 2°49.821 325 0.1 158 13.4
2002-02-28 08:16:27 51°18.271 2°49.822 326.7 0.3 93.9 13
2002-02-28 08:16:32 51°18.271 2°49.821 327.8 0.1 133.4 12.8
2002-02-28 08:16:37 51°18.271 2°49.822 327.7 0.2 90.6 12.7
2002-02-28 08:16:42 51°18.271 2°49.822 328.3 0.1 127.4 12.9
2002-02-28 08:16:47 51°18.271 2°49.823 328.3 0.2 73.7 13
2002-02-28 08:16:52 51°18.271 2°49.823 327.8 0.1 181.7 13.2
2002-02-28 08:16:57 51°18.271 2°49.823 328.3 0.1 85.5 13.4
2002-02-28 08:17:02 51°18.271 2°49.823 327.5 0.1 163.5 13.5
2002-02-28 08:17:07 51°18.271 2°49.823 327.5 0.1 156.2 13.5
2002-02-28 08:17:12 51°18.271 2°49.824 326.5   121.6 13.3
2002-02-28 08:17:17 51°18.271 2°49.824 326 0.1 64.4 13.1
2002-02-28 08:17:22 51°18.271 2°49.824 325.2 0.1 56 12.9
2002-02-28 08:17:27 51°18.271 2°49.824 325.2   86.2 12.9
2002-02-28 08:17:32 51°18.271 2°49.823 325.3 0.1 204.3 12.9
2002-02-28 08:17:37 51°18.271 2°49.824 324.7 0.1 47.8 12.8
2002-02-28 08:17:42 51°18.271 2°49.824 323   71.7 12.8
2002-02-28 08:17:47 51°18.272 2°49.824 323.7   269.3 12.9
2002-02-28 08:17:52 51°18.271 2°49.823 324 0.1 238.3 13.1
2002-02-28 08:17:57 51°18.271 2°49.823 323.8 0.1 246.9 13.3
2002-02-28 08:18:02 51°18.271 2°49.823 322.2 0.1 281 13.3
2002-02-28 08:18:07 51°18.271 2°49.823 321.7 0.1 266.6 13.2
2002-02-28 08:18:12 51°18.271 2°49.822 321.7 0.2 247.4 13.2
2002-02-28 08:18:17 51°18.271 2°49.822 321.5 0.2 242.1 13.2
2002-02-28 08:18:22 51°18.27 2°49.821 321.3 0.2 242.8 13.2
2002-02-28 08:18:27 51°18.27 2°49.821 321 0.2 274.2 13.1
2002-02-28 08:18:32 51°18.27 2°49.821 320 0.1 287.2 13.1
2002-02-28 08:18:37 51°18.27 2°49.82 320 0.1 293.5 13
2002-02-28 08:18:42 51°18.27 2°49.82 319.8 0.2 291.4 13
2002-02-28 08:18:47 51°18.271 2°49.82 319.2 0.3 309.6 13
2002-02-28 08:18:52 51°18.27 2°49.819 319 0.3 315 13
2002-02-28 08:18:57 51°18.271 2°49.818 318.8 0.3 325.4 12.9
2002-02-28 08:19:02 51°18.271 2°49.818 318 0.3 318 12.9
2002-02-28 08:19:07 51°18.271 2°49.818 318 0.3 316.8 12.9
2002-02-28 08:19:12 51°18.272 2°49.817 317.2 0.3 320.5 12.8
2002-02-28 08:19:17 51°18.272 2°49.817 317.3 0.3 314.2 12.8
2002-02-28 08:19:22 51°18.272 2°49.816 317.8 0.2 301.3 12.6
2002-02-28 08:19:27 51°18.272 2°49.816 318.7 0.2 326.1 12.4
2002-02-28 08:19:32 51°18.273 2°49.815 319 0.1 318.8 12.3
2002-02-28 08:19:37 51°18.272 2°49.815 320.3 0.1 298 12.3
2002-02-28 08:19:42 51°18.272 2°49.815 321.2 0.1 270.5 12.4
2002-02-28 08:19:47 51°18.272 2°49.815 320.8 0.1 282.7 12.5
2002-02-28 08:19:52 51°18.273 2°49.815 319.8 0.1 299.4 12.7
2002-02-28 08:19:57 51°18.273 2°49.815 320 0.1 291.8 12.9
2002-02-28 08:20:02 51°18.273 2°49.815 319.8 0.1 308.6 13.1
2002-02-28 08:20:07 51°18.273 2°49.814 319.2 0.1 285.1 13.2
2002-02-28 08:20:12 51°18.273 2°49.814 318.8 0.1 348.4 13.1
2002-02-28 08:20:17 51°18.273 2°49.814 318.2 0.1 303.2 13.1
2002-02-28 08:20:22 51°18.273 2°49.814 317.8 0.1 345.6 13
2002-02-28 08:20:27 51°18.273 2°49.814 317.3 0.1 299.7 13.1
2002-02-28 08:20:32 51°18.273 2°49.813 317.7 0.1 291.3 13.1
2002-02-28 08:20:37 51°18.273 2°49.814 317.3 0.1 335.3 13.2
2002-02-28 08:20:42 51°18.273 2°49.814 316.8 0.1 337.2 13.1
2002-02-28 08:20:47 51°18.274 2°49.813 316.7 0.2 358.8 13
2002-02-28 08:20:52 51°18.274 2°49.814 316.8 0.1 10.4 12.8
2002-02-28 08:20:57 51°18.274 2°49.813 318.7 0.1 32.3 12.8
2002-02-28 08:21:02 51°18.274 2°49.814 319.5 0.1 41.8 12.8
2002-02-28 08:21:07 51°18.274 2°49.814 319.5   146.7 12.8
2002-02-28 08:21:12 51°18.274 2°49.814 319.5 0.1 72.1 12.8
2002-02-28 08:21:17 51°18.274 2°49.814 319.5 0.1 125.1 12.7
2002-02-28 08:21:22 51°18.274 2°49.815 319.2 0.1 52 12.6
2002-02-28 08:21:27 51°18.274 2°49.815 318.5 0.1 29.4 12.6
2002-02-28 08:21:32 51°18.274 2°49.815 319.2 0.2 74 12.5
2002-02-28 08:21:37 51°18.274 2°49.815 320 0.2 97.5 12.4
2002-02-28 08:21:42 51°18.274 2°49.815 321 0.1 112.3 12.6
2002-02-28 08:21:47 51°18.274 2°49.814 321.3 0.1 158.3 12.7
2002-02-28 08:21:52 51°18.274 2°49.814 320.7 0.1 141.4 12.9
2002-02-28 08:21:57 51°18.274 2°49.814 320 0.1 164.9 13
2002-02-28 08:22:02 51°18.274 2°49.815 320 0.1 110.9 12.8
2002-02-28 08:22:07 51°18.273 2°49.815 320 0.2 146.7 12.7
2002-02-28 08:22:12 51°18.273 2°49.815 320.7 0.2 151.9 12.8
2002-02-28 08:22:17 51°18.273 2°49.815 321.2 0.2 168.8 12.9
2002-02-28 08:22:22 51°18.272 2°49.815 321.5 0.2 177.9 13.1
2002-02-28 08:22:27 51°18.272 2°49.815 321 0.2 186.6 13.3
2002-02-28 08:22:32 51°18.272 2°49.815 321 0.2 187.7 13.4
2002-02-28 08:22:37 51°18.271 2°49.815 320.2 0.2 187.7 13.3
2002-02-28 08:22:42 51°18.271 2°49.815 320.2 0.1 171.6 13.3
2002-02-28 08:22:47 51°18.271 2°49.815 320.2 0.1 186.9 13.3
2002-02-28 08:22:52 51°18.271 2°49.814 321 0.1 205.8 13.3
2002-02-28 08:22:57 51°18.271 2°49.814 321.2 0.1 221.9 13.2
2002-02-28 08:23:02 51°18.271 2°49.814 320.8 0.1 202 13.2
2002-02-28 08:23:07 51°18.271 2°49.814 321.5 0.1 232.3 13.2
2002-02-28 08:23:12 51°18.271 2°49.814 321.7   322 13.2
2002-02-28 08:23:17 51°18.271 2°49.814 321.5 0.1 339.3 13.1
2002-02-28 08:23:22 51°18.271 2°49.814 321.2 0.1 37.6 13.1
2002-02-28 08:23:27 51°18.271 2°49.814 321   135 13
2002-02-28 08:23:32 51°18.271 2°49.814 321.8   165.4 13
2002-02-28 08:23:37 51°18.271 2°49.814 321.8 0.1 185.8 13
2002-02-28 08:23:42 51°18.271 2°49.815 322   213 13
2002-02-28 08:23:47 51°18.27 2°49.814 323 0.1 183.9 13
2002-02-28 08:23:52 51°18.27 2°49.814 324   181.1 13
2002-02-28 08:23:57 51°18.27 2°49.814 323.8   297.5 13
2002-02-28 08:24:02 51°18.271 2°49.814 323.5   21.6 13.1
2002-02-28 08:24:07 51°18.271 2°49.814 324.8 0.1 234.5 13.1
2002-02-28 08:24:12 51°18.271 2°49.814 325.2   45.5 13.1
2002-02-28 08:24:17 51°18.271 2°49.814 325.3 0.1 255.4 13.2
2002-02-28 08:24:22 51°18.271 2°49.814 325.2 0.1 306.7 13.1
2002-02-28 08:24:27 51°18.271 2°49.814 323.8 0.1 289.8 13.2
2002-02-28 08:24:32 51°18.271 2°49.813 324.2 0.1 272.9 13.2
2002-02-28 08:24:37 51°18.271 2°49.813 324.2 0.1 301.3 13.2
2002-02-28 08:24:42 51°18.271 2°49.813 323.7 0.1 285.7 13.1
2002-02-28 08:24:47 51°18.271 2°49.812 323.5 0.2 283.6 13.2
2002-02-28 08:24:52 51°18.271 2°49.812 323.5 0.1 266.5 13.2
2002-02-28 08:24:57 51°18.271 2°49.812 324.3 0.1 254.1 13.2
2002-02-28 08:25:02 51°18.271 2°49.812 325 0.1 275.2 13.2
2002-02-28 08:25:07 51°18.271 2°49.812 324.8 0.1 315.8 13.2
2002-02-28 08:25:12 51°18.271 2°49.812 324.2 0.1 303.8 13.2
2002-02-28 08:25:17 51°18.271 2°49.812 324   276.8 13.2
2002-02-28 08:25:22 51°18.271 2°49.811 323.8 0.1 262.1 13.2
2002-02-28 08:25:27 51°18.271 2°49.811 323.3 0.1 321.8 13.1
2002-02-28 08:25:32 51°18.271 2°49.811 322.5 0.2 287.9 13.1
2002-02-28 08:25:37 51°18.272 2°49.811 321.8 0.2 310.2 13
2002-02-28 08:25:42 51°18.272 2°49.81 321.2 0.2 268.5 12.8
2002-02-28 08:25:47 51°18.272 2°49.81 321.3 0.2 325.8 12.7
2002-02-28 08:25:52 51°18.272 2°49.81 321.7 0.2 288.3 12.6
2002-02-28 08:25:57 51°18.272 2°49.809 320.7 0.2 322.1 12.7
2002-02-28 08:26:02 51°18.272 2°49.809 320.3 0.2 324.6 12.8
2002-02-28 08:26:07 51°18.272 2°49.809 320.5 0.2 345.7 12.9
2002-02-28 08:26:11 51°18.272 2°49.809 321 0.1 346.1 13
2002-02-28 08:26:17 51°18.272 2°49.809 320.8 0.1 288.4 13.2
2002-02-28 08:26:22 51°18.272 2°49.809 321.8 0.1 318.5 13.2
2002-02-28 08:26:27 51°18.272 2°49.809 322.5 0.1 310.8 13.3
2002-02-28 08:26:32 51°18.273 2°49.809 322.7 0.1 263.5 13.4
2002-02-28 08:26:37 51°18.272 2°49.808 323 0.1 303.7 13.1
2002-02-28 08:26:42 51°18.273 2°49.808 321.7 0.1 302.9 13
2002-02-28 08:26:47 51°18.273 2°49.807 321.5 0.1 267 13.1
2002-02-28 08:26:52 51°18.273 2°49.807 321.5 0.1 304 13.2
2002-02-28 08:26:57 51°18.273 2°49.808 321.7 0.1 306.8 13.2
2002-02-28 08:27:02 51°18.272 2°49.807 321.8 0.1 230.6 13.2
2002-02-28 08:27:07 51°18.272 2°49.807 322.5 0.1 262.7 13.3
2002-02-28 08:27:12 51°18.273 2°49.807 322 0.1 4.8 13.2
2002-02-28 08:27:17 51°18.273 2°49.807 321.7 0.1 3.6 13
2002-02-28 08:27:22 51°18.273 2°49.807 322.7   260.6 13
2002-02-28 08:27:27 51°18.272 2°49.807 323.5 0.1 234.3 13.1
2002-02-28 08:27:32 51°18.272 2°49.807 323.3 0.1 251.7 13.1
2002-02-28 08:27:37 51°18.272 2°49.806 323.3 0.1 246.3 13
2002-02-28 08:27:42 51°18.272 2°49.807 323.7 0.1 210.7 13
2002-02-28 08:27:47 51°18.272 2°49.806 324 0.1 219.9 13
2002-02-28 08:27:51 51°18.272 2°49.806 324.3 0.1 232.8 13
2002-02-28 08:27:57 51°18.272 2°49.806 324 0.1 252.8 13
2002-02-28 08:28:02 51°18.272 2°49.806 324   332 13.1
2002-02-28 08:28:07 51°18.272 2°49.806 324.3 0.1 211.2 13.1
2002-02-28 08:28:12 51°18.272 2°49.806 325.5 0.1 203.4 13
2002-02-28 08:28:17 51°18.271 2°49.806 325.2 0.1 214.8 12.9